Tracking 29510 objects as of 17-Sep-2024
HD Live streaming from Space Station
objects crossing your sky now

FENGYUN 1C DEB

Track FENGYUN 1C DEB now!
10-day predictions


NORAD ID: 31994
Int'l Code: 1999-025CPX
Perigee: 799.0 km
Apogee: 1,034.7 km
Inclination: 98.5 °
Period: 103.2 minutes
Semi major axis: 7287 km
RCS: 0.0108 m2 (small)
Launch date: May 10, 1999
Source: People's Republic of China (PRC)
Launch site: Taiyaun Space Center, China (TSC)

Note: This is SATELLITE DEBRIS
Your satellite tracking list
Your tracking list is empty




NASA's NSSDC Master Catalog

Two Line Element Set (TLE):
1 31994U 99025CPX 24260.34423045  .00000753  00000-0  52472-3 0  9998
2 31994  98.5477 281.4459 0161654 325.3012  33.7689 13.95416087504863
Source of the keplerian elements: AFSPC